This is the latest recevied weather packets stored in our database for station/object K6LCM-13. If no packets are shown the sender has not sent any weather packets the latest 10 day(s).
| Time | Temp. | Humidity | Pressure | Rain* | Wind** | Luminosity | Snow |
|---|---|---|---|---|---|---|---|
| 1777904117 | 11.67° C | 80% | 1014.4 hPa | 0 mm | - | - | - |
| 1777903577 | 11.67° C | 79% | 1014.3 hPa | 0 mm | - | - | - |
| 1777903037 | 11.67° C | 79% | 1014.2 hPa | 0 mm | - | - | - |
| 1777902497 | 11.67° C | 78% | 1014.3 hPa | 0 mm | - | - | - |
| 1777901957 | 12.22° C | 78% | 1014.2 hPa | 0 mm | - | - | - |
| 1777901404 | 12.22° C | 78% | 1014.2 hPa | 0 mm | - | - | - |
| 1777900865 | 12.22° C | 79% | 1014.2 hPa | 0 mm | - | - | - |
| 1777900325 | 12.22° C | 81% | 1014.2 hPa | 0 mm | - | - | - |
| 1777899784 | 12.22° C | 81% | 1014.1 hPa | 0 mm | - | - | - |
| 1777898704 | 12.22° C | 80% | 1014 hPa | 0 mm | - | - | - |
| 1777898165 | 12.22° C | 79% | 1014 hPa | 0 mm | - | - | - |
| 1777897625 | 12.78° C | 77% | 1014 hPa | 0 mm | - | - | - |
| 1777897085 | 12.78° C | 76% | 1013.8 hPa | 0 mm | - | - | - |
| 1777896545 | 12.78° C | 75% | 1014.1 hPa | 0 mm | - | - | - |
| 1777896004 | 12.78° C | 72% | 1013.8 hPa | 0 mm | - | - | - |
| 1777895465 | 12.78° C | 71% | 1013.8 hPa | 0 mm | - | - | - |
| 1777894838 | 13.33° C | 70% | 1013.8 hPa | 0 mm | - | - | - |
| 1777894298 | 13.33° C | 70% | 1013.7 hPa | 0 mm | - | - | - |
| 1777893759 | 13.33° C | 71% | 1013.9 hPa | 0 mm | - | - | - |
| 1777893218 | 12.78° C | 72% | 1013.7 hPa | 0 mm | - | - | - |
| 1777892678 | 12.22° C | 75% | 1013.8 hPa | 0 mm | - | - | - |
| 1777892139 | 12.22° C | 76% | 1014 hPa | 0 mm | - | - | - |
| 1777891598 | 12.22° C | 78% | 1014 hPa | 0 mm | - | - | - |
| 1777891058 | 12.78° C | 78% | 1014 hPa | 0 mm | - | - | - |
| 1777890518 | 12.78° C | 78% | 1014 hPa | 0 mm | - | - | - |
* Rain latest hour (hover to see other rain measurements)
** Current wind speed in m/s (hover to see current wind gust speed)